Track IRIDIUM 128 now! 10-day predictions IRIDIUM 128 is classified as:
1 42811U 17039J 21019.55077061 .00000167 00000-0 52456-4 0 9990 2 42811 86.3993 130.4093 0002313 78.2850 281.8605 14.34219881186955